Theta_e
339 335 325 326 326 328 325 321 303 310 306 298 295 297 295 303 304 301 300 303 301 305 305 306 304 305 302 302 302 304 304 302 308 296 297 313 330 333 335 335 334 335 337 336 339 344 344 344 349 350 351 351 353 352 351 351 351 351 351 351 351 351 351 350 350 350 349 348 347 347 348 347 347 347 346 346 346 345 346 345 347 345 345 345 346 347 347 347 345 345 346 346 346 350 353 351 351
332 329 326 328 327 328 317 318 306 302 302 295 294 298 297 303 303 299 299 301 304 304 305 304 304 305 306 305 304 305 305 308 306 308 315 321 328 328 330 333 333 332 336 337 336 341 345 344 346 349 350 351 351 351 351 351 351 351 351 351 351 351 350 350 350 350 349 349 348 348 347 347 347 346 346 346 345 346 346 346 346 345 345 345 346 346 346 346 346 345 345 346 346 349 352 351 350
328 327 326 330 325 324 318 316 301 298 298 292 294 297 302 298 298 300 302 302 304 305 305 305 305 305 305 305 303 301 297 308 308 309 314 322 318 324 329 331 331 334 334 338 338 337 344 345 343 348 350 351 351 351 351 351 351 351 351 350 350 350 350 350 350 350 349 348 348 348 348 347 347 346 345 345 346 345 345 346 346 345 345 345 346 346 345 345 345 346 346 346 346 348 352 351 350
328 329 326 326 317 321 312 309 304 298 296 294 293 299 299 298 299 301 303 304 304 304 305 304 302 309 304 300 301 304 303 304 308 309 310 319 323 325 328 329 327 321 326 339 337 335 339 343 343 348 349 350 351 351 351 352 351 352 352 350 349 349 349 349 349 349 348 348 348 348 348 347 346 346 345 345 345 345 345 346 346 346 346 346 347 347 347 345 344 345 345 346 346 347 352 351 350
328 331 327 322 319 313 311 306 299 297 291 293 293 298 299 300 300 301 304 304 303 303 303 304 302 307 306 303 306 300 301 309 308 315 316 329 329 326 328 328 323 318 320 326 333 334 338 342 344 347 349 349 350 351 351 351 351 352 351 351 350 349 349 349 349 348 349 349 348 347 347 347 347 347 345 345 345 344 345 345 346 347 347 347 348 348 348 347 346 346 346 346 346 347 351 351 349
326 325 331 325 314 315 307 299 301 294 297 299 296 296 300 301 301 301 302 304 305 303 305 303 301 301 302 306 307 302 310 302 311 313 317 318 321 324 324 324 319 317 318 321 329 333 340 339 343 346 348 349 349 350 350 350 350 351 350 351 350 349 349 348 348 348 348 348 347 347 347 347 347 346 345 345 345 344 344 347 347 347 346 347 347 348 349 349 348 347 346 346 347 347 351 350 349
322 317 321 321 315 314 304 298 295 296 297 301 298 298 300 301 301 301 302 303 305 304 304 302 303 302 300 305 306 311 315 314 311 315 319 319 316 320 322 318 317 318 321 322 325 335 337 339 343 343 344 345 347 348 349 349 349 349 350 350 349 348 348 348 348 348 348 347 348 347 347 346 346 346 346 347 347 347 347 347 347 347 347 347 347 348 349 349 349 348 347 347 347 347 350 349 349
323 313 319 309 305 304 300 298 296 297 297 301 301 300 301 302 302 301 301 301 300 299 303 303 303 300 302 304 302 312 314 316 315 315 315 314 316 320 320 317 315 322 326 324 326 331 335 336 340 341 341 343 344 345 347 348 348 349 349 349 349 348 348 348 348 348 347 349 349 347 346 347 346 346 346 347 347 347 347 346 346 346 346 346 346 347 349 349 349 349 348 347 347 348 349 349 348
319 314 318 309 301 307 298 297 297 301 299 301 300 304 308 302 302 301 300 303 302 302 302 302 302 297 299 300 303 312 309 314 315 316 316 316 317 316 317 318 317 326 327 326 326 330 332 334 337 338 339 340 342 344 346 347 348 348 348 348 349 349 348 347 347 346 347 347 347 346 347 346 345 345 345 345 346 346 347 347 346 346 346 346 346 346 346 347 348 349 349 348 347 349 349 348 348
314 311 305 306 304 296 299 298 296 299 298 300 300 301 301 302 301 302 302 301 302 303 302 303 301 299 300 298 303 306 307 312 314 312 314 316 318 316 316 319 320 324 324 327 327 329 330 334 333 335 336 337 339 342 344 345 346 347 348 348 348 348 348 347 347 347 347 347 346 346 346 346 347 346 346 346 346 347 347 346 346 346 346 346 346 345 346 347 347 350 348 348 346 349 348 348 348
307 314 314 304 301 296 297 296 297 299 299 300 301 303 302 302 302 301 301 301 303 301 301 302 300 299 299 302 303 311 309 309 309 308 312 315 317 317 316 318 321 323 323 326 328 327 328 329 330 332 334 336 336 338 340 342 344 345 346 347 347 347 347 347 347 346 347 347 347 347 346 346 347 347 347 346 345 347 347 347 346 346 346 345 345 346 346 347 348 350 349 346 346 347 348 347 347
305 305 310 300 296 296 295 295 298 298 299 300 298 302 301 302 303 300 300 299 300 301 300 301 299 301 299 300 304 305 307 309 309 311 312 313 312 318 321 317 321 322 325 325 326 326 327 327 328 329 331 333 333 335 336 337 339 342 344 345 346 346 347 347 347 347 346 347 347 346 346 346 347 345 344 342 344 345 346 346 345 344 345 344 344 344 346 346 346 347 348 347 346 346 347 347 345
306 309 301 297 298 297 297 297 297 297 299 298 299 301 302 302 300 300 300 300 300 299 299 302 301 302 299 299 304 305 306 307 309 311 311 312 312 314 320 320 322 321 323 323 321 321 323 324 324 327 328 328 329 330 331 333 335 338 339 342 343 345 345 346 346 346 346 346 346 346 345 345 343 341 341 342 341 345 346 345 344 344 344 344 344 345 345 345 345 345 347 346 345 344 343 346 345
309 310 305 298 301 298 296 297 298 295 296 298 299 303 304 302 301 302 300 298 299 298 302 303 303 301 299 300 301 301 303 306 307 309 310 311 312 311 312 311 312 312 313 314 313 314 314 315 318 324 326 328 329 329 327 328 331 334 336 338 338 340 342 344 344 344 344 344 343 342 341 340 339 339 340 342 344 344 344 344 344 344 344 344 344 344 344 344 344 345 345 345 344 344 343 346 345
309 310 303 302 297 298 298 295 296 295 294 299 301 302 302 303 302 303 300 300 299 304 304 304 305 302 295 298 297 299 302 305 306 308 308 309 310 309 311 310 310 311 311 312 311 311 311 312 313 315 320 324 326 328 328 329 329 329 332 333 334 336 338 339 340 341 340 339 339 338 337 335 334 335 337 339 341 340 338 337 339 343 343 343 343 343 343 344 344 344 345 344 344 345 344 345 344
313 307 306 301 297 296 297 297 299 297 296 300 301 303 301 302 303 301 302 302 302 307 306 299 304 300 302 300 300 302 303 305 306 307 306 306 307 308 306 307 306 307 309 308 309 309 310 310 311 312 313 316 320 323 326 328 328 328 329 331 332 333 334 335 336 337 334 331 331 331 330 331 330 331 329 333 332 336 335 332 333 340 342 342 342 342 343 343 344 344 344 343 344 344 344 343 341
313 311 300 299 295 295 296 296 296 293 297 300 302 301 298 298 302 302 305 303 300 303 303 303 302 305 301 301 303 303 303 306 307 305 305 304 303 302 303 304 304 305 307 306 307 306 308 309 310 310 311 312 315 319 324 327 330 328 329 327 327 328 330 331 332 330 326 325 325 325 324 330 336 336 334 332 327 331 327 326 330 337 340 340 340 341 341 342 342 343 344 343 343 343 340 337 335
311 304 302 296 297 295 298 298 298 300 298 299 300 300 299 297 299 301 302 300 301 302 301 302 304 302 303 304 303 303 304 302 302 301 300 300 301 300 300 301 301 301 302 303 305 305 306 308 309 310 310 311 312 316 321 326 328 329 329 330 331 329 327 326 327 329 326 331 327 329 332 333 334 336 336 330 333 331 329 325 326 332 337 337 337 339 340 340 341 343 343 343 342 340 335 337 333
307 301 298 295 296 298 300 299 300 298 297 299 300 300 299 298 298 300 297 299 299 299 299 300 300 300 301 301 301 300 301 300 300 299 298 298 298 298 298 299 299 300 301 302 303 304 305 305 308 308 310 310 311 312 317 321 323 325 327 328 329 328 329 328 329 329 330 332 332 334 333 335 335 335 334 332 333 327 331 326 326 329 333 334 334 335 336 338 339 341 342 341 340 336 334 335 334
307 301 296 297 301 299 301 301 300 301 300 299 299 299 298 299 299 301 300 297 298 296 295 297 297 296 297 298 299 299 299 299 299 298 297 297 297 297 297 298 298 299 301 301 302 304 304 304 306 307 309 311 311 311 313 315 319 322 323 325 326 327 328 331 332 332 332 332 332 333 334 335 336 335 327 324 324 332 330 324 325 326 327 328 327 328 330 333 337 338 338 337 335 332 334 334 333
306 300 298 300 299 299 299 300 301 300 300 298 298 299 298 298 300 300 298 295 297 297 298 297 296 296 297 297 298 297 297 297 297 297 297 297 297 297 296 297 297 299 301 301 301 302 303 303 305 305 307 310 311 312 312 312 314 318 321 322 323 324 325 327 328 330 332 333 333 333 334 334 334 334 334 331 329 332 331 329 327 328 329 329 322 328 330 331 330 331 333 333 334 334 332 332 332
304 298 301 301 299 299 301 301 301 299 299 298 298 296 296 300 301 299 298 294 292 296 298 298 297 297 296 295 297 297 296 296 296 296 296 296 296 296 296 296 298 298 300 300 301 302 303 303 303 302 304 308 308 310 313 313 313 314 316 319 321 323 324 325 326 327 329 331 333 333 333 333 333 333 331 331 331 332 331 330 330 330 330 331 329 329 329 329 330 330 331 334 332 331 331 330 331
296 300 300 299 299 299 301 301 300 298 298 297 296 298 298 298 298 299 298 297 298 300 299 298 298 297 297 297 296 295 295 295 295 296 296 295 296 296 296 296 296 296 297 298 300 300 301 302 303 301 302 303 304 307 309 312 313 314 315 317 318 320 322 323 324 325 326 328 330 332 332 332 332 331 330 330 331 332 331 331 331 331 331 331 330 330 329 329 330 328 327 326 329 329 329 329 329
299 296 299 299 300 300 302 299 299 298 298 297 298 298 297 297 295 299 298 300 300 300 299 298 298 297 296 295 295 295 295 295 295 296 296 295 296 297 297 295 296 296 296 298 299 299 300 300 302 302 302 302 303 305 305 308 310 313 314 315 317 318 320 321 323 324 325 326 327 329 331 331 331 331 330 329 329 330 329 330 330 330 330 330 330 330 328 327 328 325 324 324 325 328 327 327 328
299 298 300 299 300 300 301 298 298 299 299 298 297 295 296 298 297 298 297 299 299 298 298 297 297 296 295 294 294 294 294 295 295 295 296 295 296 297 297 296 295 295 295 297 298 299 300 302 301 301 302 302 302 303 303 305 306 308 312 314 315 316 317 319 321 322 323 324 326 327 329 330 330 329 328 328 328 329 329 328 329 330 330 329 328 328 327 326 326 324 323 322 321 322 324 327 326
301 300 299 300 300 300 299 299 299 298 299 297 295 295 297 298 301 297 299 298 298 298 297 296 295 295 294 293 293 293 293 293 294 294 294 294 296 295 295 294 294 294 294 296 296 297 298 300 301 300 301 302 302 301 301 302 303 305 307 310 313 314 316 318 319 320 322 324 325 326 328 329 329 328 328 327 327 326 327 327 328 328 329 329 328 326 325 325 324 323 322 321 320 320 320 321 324
301 299 299 298 299 299 299 298 298 298 297 296 295 294 296 298 297 291 298 298 298 296 295 295 294 293 293 293 294 293 293 293 293 294 294 294 294 293 293 293 293 294 294 294 295 296 297 297 298 299 300 301 301 300 299 300 301 303 305 306 309 313 315 316 318 319 321 322 324 326 326 328 328 328 327 326 325 325 325 326 327 327 328 328 327 326 325 324 323 322 321 320 320 320 319 319 322
300 298 297 297 298 298 298 298 297 297 297 296 296 295 296 297 298 293 297 297 297 295 294 294 294 292 292 292 292 293 292 293 291 293 292 292 292 292 292 293 293 293 293 294 295 296 296 296 297 297 299 300 300 300 299 299 299 301 303 304 305 307 310 314 316 317 318 320 322 324 325 326 327 327 327 326 326 326 325 325 326 326 327 327 327 325 324 323 323 322 321 320 321 321 321 321 319
298 297 294 296 297 295 297 296 297 297 295 297 297 294 293 293 293 297 297 297 296 294 293 293 292 292 292 291 291 291 291 291 291 291 292 292 292 293 292 293 294 293 294 294 295 295 295 296 297 297 298 298 298 299 299 299 299 300 301 302 302 304 304 309 313 316 317 319 321 322 323 324 324 326 326 325 323 325 325 325 324 324 326 327 326 325 325 323 322 321 320 320 320 319 319 319 320
298 297 294 294 294 292 297 298 297 296 296 297 296 285 289 293 296 298 298 296 295 293 292 292 292 291 291 291 290 291 291 291 291 291 292 292 292 292 292 293 294 293 293 293 294 295 297 298 298 298 298 297 297 297 298 298 298 299 300 300 300 301 303 304 306 309 312 316 318 320 322 323 323 325 325 325 325 324 324 324 322 324 325 326 326 325 324 323 321 320 319 318 316 318 317 317 319
293 297 296 290 289 288 296 297 296 295 297 297 297 286 287 294 297 297 297 296 294 291 291 291 292 291 290 290 290 290 291 291 292 292 294 294 293 293 293 293 293 293 294 293 293 294 295 295 297 296 297 296 296 296 296 297 298 298 298 298 299 300 302 302 302 303 305 309 313 317 320 321 321 323 324 324 324 324 324 323 323 324 325 326 325 325 324 323 321 319 319 319 317 318 317 317 318
295 291 289 294 289 291 295 298 295 292 296 298 295 287 287 291 295 296 296 295 293 291 290 290 290 290 290 289 289 289 291 292 293 294 293 293 293 292 292 292 293 293 293 293 293 294 293 294 295 295 295 295 295 296 296 296 297 297 298 299 298 299 299 299 300 301 302 304 307 311 315 318 320 322 322 323 324 323 322 323 323 324 324 324 325 324 324 323 321 319 319 320 317 317 317 316 316
294 292 289 289 290 290 292 294 296 295 295 296 293 286 290 291 294 295 295 293 292 290 290 289 290 290 289 289 289 289 290 290 291 292 293 293 293 292 293 292 293 293 293 293 292 292 293 294 294 294 294 294 295 295 295 295 296 296 297 297 297 297 297 297 299 300 301 301 303 306 312 317 319 320 321 322 322 322 322 322 323 323 324 324 324 323 324 323 321 319 317 319 319 318 317 316 315
293 292 288 291 288 287 286 293 294 296 293 290 292 288 289 292 293 293 294 293 291 290 289 289 289 288 289 289 289 288 289 289 289 290 292 293 293 294 293 294 293 292 292 292 292 292 292 293 293 293 294 294 294 294 295 295 295 295 296 296 297 296 296 297 297 299 300 300 301 304 310 313 313 317 319 320 321 322 323 323 323 324 323 323 323 323 323 323 322 319 317 318 319 318 317 316 315
289 288 286 287 288 288 287 287 291 294 293 290 289 289 290 291 293 292 292 293 291 289 288 288 288 288 288 288 288 288 288 287 289 290 293 294 294 294 292 292 292 292 292 291 292 292 292 292 293 293 293 293 293 293 294 294 294 294 295 295 296 296 296 296 297 298 300 300 300 302 305 308 312 315 317 318 318 320 321 321 322 323 322 323 323 321 321 321 320 319 317 317 317 318 317 317 316
289 289 288 287 284 287 287 292 292 293 290 289 288 286 289 290 290 291 291 291 289 288 288 288 288 288 288 288 288 287 289 288 291 293 294 293 292 291 290 290 291 290 290 290 291 291 291 292 292 293 293 293 293 293 293 293 293 293 292 293 294 295 295 296 297 297 299 299 299 301 304 308 308 309 312 315 317 318 320 322 321 322 322 322 321 320 319 319 318 318 317 316 315 314 316 317 316
290 291 289 287 288 289 292 293 292 292 289 288 287 288 289 289 289 290 290 290 288 288 287 287 287 287 288 287 288 288 288 288 293 293 292 292 291 290 290 289 289 289 289 290 290 290 290 291 291 291 292 293 292 292 292 292 291 291 292 292 292 293 295 296 296 297 298 299 300 301 303 302 303 306 310 313 314 314 317 320 321 321 321 320 320 320 320 320 319 318 317 315 314 314 315 316 316
290 289 288 287 289 287 292 291 293 292 288 286 288 288 289 289 290 290 290 289 287 287 286 286 286 287 287 287 288 287 288 291 291 289 291 290 288 290 289 289 289 288 288 289 289 290 290 290 290 291 292 292 292 292 292 292 292 292 291 291 292 292 293 294 294 295 296 299 300 301 299 299 302 304 306 310 311 313 314 316 319 320 320 320 320 320 320 316 318 318 317 315 315 314 314 316 315
291 288 287 286 287 291 292 292 292 292 289 286 288 287 287 289 290 290 289 288 287 287 287 286 286 286 286 287 286 287 286 286 286 287 289 286 288 288 288 288 288 288 288 289 289 289 290 290 290 291 291 291 291 292 292 292 292 293 292 292 292 292 294 295 295 296 296 297 299 299 299 300 301 301 304 307 310 312 313 314 316 319 318 318 318 319 319 318 318 317 317 315 313 314 313 315 315
288 288 286 284 290 286 283 291 290 291 288 286 287 286 287 289 289 289 289 287 287 289 289 289 288 286 285 285 286 285 285 285 285 285 285 285 286 286 286 287 288 288 288 288 288 289 290 290 290 290 291 291 291 291 292 292 292 293 293 293 293 293 292 294 295 296 296 296 296 298 298 299 300 301 303 305 308 310 311 312 314 318 318 320 319 318 318 318 317 317 316 315 314 311 310 312 315
291 291 287 287 289 288 287 286 289 290 291 290 287 284 284 287 285 286 286 288 288 288 288 287 287 287 288 288 287 286 285 285 285 285 285 285 285 285 286 287 287 287 288 288 289 289 290 290 290 290 291 291 291 292 291 292 292 292 292 292 293 292 292 292 292 292 294 294 295 296 297 299 300 300 302 303 305 307 309 310 311 314 318 319 319 318 318 318 318 318 316 315 314 312 310 311 312
286 291 290 289 289 287 288 288 287 283 282 288 286 276 278 285 286 285 285 286 285 286 286 285 285 285 285 284 284 285 287 287 286 285 285 285 285 286 286 286 286 287 287 288 289 289 290 290 290 290 291 291 291 291 291 291 291 290 290 289 288 288 288 289 289 289 291 292 293 295 297 298 299 300 301 302 305 306 307 308 308 309 315 317 317 318 318 319 318 317 316 315 314 314 312 311 310
284 286 289 290 288 288 287 286 284 278 276 286 287 276 275 284 284 285 285 286 285 285 284 284 284 285 283 284 285 284 285 285 286 286 284 284 285 285 286 286 286 286 287 289 289 289 290 290 290 290 290 290 291 291 291 291 290 290 289 289 288 288 288 290 291 291 292 293 294 294 296 297 299 299 300 302 304 305 305 306 306 307 309 315 315 317 317 317 318 318 317 316 315 313 312 310 310
282 288 289 288 287 286 285 285 284 281 286 288 287 282 276 276 283 287 286 285 284 283 283 283 284 284 283 283 284 284 284 284 284 284 284 284 285 285 285 286 286 287 288 289 289 289 289 289 289 290 290 290 290 291 290 290 289 289 288 288 288 288 288 289 290 291 292 293 293 294 295 296 297 298 299 301 302 303 303 304 305 305 306 307 313 316 317 318 317 318 316 316 316 313 313 311 310
286 288 289 286 287 286 286 284 281 282 280 277 280 284 276 275 282 287 286 283 281 281 282 282 283 282 283 283 284 284 284 284 284 283 284 284 284 285 286 286 287 287 288 288 289 289 289 289 289 289 289 289 289 290 290 289 289 289 288 288 287 288 289 289 290 291 291 292 292 293 294 295 296 297 299 299 300 301 301 303 304 304 304 304 304 313 317 318 317 316 316 315 314 313 313 312 312
289 288 290 289 288 287 286 281 282 281 276 275 278 282 275 276 282 283 285 283 280 281 282 282 282 282 283 283 284 284 283 283 284 283 284 284 285 285 286 287 287 287 288 289 289 289 289 288 288 288 288 288 289 289 289 288 286 285 284 284 283 284 286 288 289 289 290 291 290 291 293 294 295 296 297 298 298 300 301 302 303 303 303 303 302 307 315 317 317 317 316 316 314 312 312 311 311
290 290 287 287 287 285 285 283 282 277 272 276 280 282 279 272 280 282 281 283 283 281 281 281 282 282 282 283 283 283 283 283 283 283 283 284 285 285 286 286 286 287 288 288 288 288 288 288 287 287 287 287 288 287 286 284 284 283 282 282 282 282 283 284 285 287 289 290 290 291 292 294 294 294 295 296 297 299 300 301 302 302 302 301 302 304 310 316 317 316 316 316 314 312 311 311 310
289 283 282 282 280 281 278 278 280 271 271 277 277 280 282 272 275 281 280 281 282 282 280 280 280 280 282 282 282 282 282 283 283 282 283 284 285 285 285 285 286 286 287 287 287 287 287 287 286 285 285 286 285 284 284 283 283 282 282 282 281 282 283 283 284 285 288 289 289 290 291 293 293 293 294 295 295 297 298 299 300 301 301 302 302 303 306 315 316 317 316 315 314 313 312 310 311
287 283 282 276 273 275 272 274 269 271 271 275 276 278 275 275 281 281 280 281 281 282 281 281 280 280 281 281 282 282 282 282 282 282 283 284 284 284 284 285 285 285 286 286 286 286 286 285 285 284 283 283 283 283 282 282 282 282 282 281 282 282 282 283 284 284 285 286 289 289 290 291 293 292 292 292 293 295 297 297 298 299 300 300 301 302 303 308 316 315 315 314 314 313 312 311 310
284 281 279 276 271 271 269 271 273 272 276 276 276 278 273 277 280 284 281 282 282 282 282 281 281 281 281 282 282 282 282 282 282 282 283 283 284 284 284 285 285 285 285 285 285 285 284 284 283 282 282 282 282 282 282 281 282 282 282 281 281 281 281 282 283 284 285 286 287 289 291 292 292 292 292 292 293 295 296 297 298 298 299 300 300 301 302 304 312 315 315 314 313 313 313 311 311
280 283 279 277 275 271 268 271 267 269 271 274 278 273 269 270 275 282 282 282 282 282 282 282 281 281 281 281 281 281 281 281 281 282 283 283 284 284 284 285 285 285 285 284 284 284 283 283 282 281 280 281 281 281 281 281 281 281 281 281 281 281 281 282 283 284 285 285 286 288 291 292 292 292 292 293 294 295 296 296 296 297 297 298 299 300 301 302 306 314 313 313 313 314 312 311 311
282 282 281 276 275 280 274 273 270 269 270 271 271 271 275 276 281 282 282 282 282 282 282 281 280 281 281 281 281 281 281 281 282 282 283 283 284 284 284 284 284 284 284 284 283 283 282 282 281 280 279 279 280 280 280 280 280 281 281 281 281 282 282 281 281 281 282 284 286 289 290 292 293 293 293 293 294 295 295 295 295 296 296 297 298 299 300 301 303 310 312 312 312 312 311 311 311
279 279 276 278 281 279 275 275 275 272 271 271 272 274 278 281 281 280 281 280 281 281 280 280 280 280 280 281 281 281 281 280 281 282 282 283 283 283 284 284 284 283 283 283 282 282 281 281 280 279 278 279 279 279 278 278 279 279 279 280 281 280 279 279 279 280 281 282 282 283 287 292 293 293 293 293 293 294 295 295 295 295 295 296 296 297 299 300 302 306 312 311 311 311 310 310 311
280 276 279 283 285 281 277 270 271 269 266 269 271 271 274 275 270 279 279 278 279 279 279 279 280 280 279 280 280 280 280 280 281 282 282 283 283 283 283 284 283 283 282 282 281 281 281 280 279 278 278 278 278 278 278 278 278 278 279 279 279 279 278 278 279 279 280 280 281 282 284 287 292 293 293 293 292 293 294 293 293 293 293 294 295 296 298 300 301 304 310 311 311 311 309 309 309
282 280 287 278 273 273 276 271 267 267 268 270 274 274 275 275 275 276 277 277 278 279 279 278 278 278 279 279 279 280 280 281 281 281 282 282 283 283 283 282 282 282 282 281 281 281 280 279 279 278 278 278 278 278 278 278 278 278 278 278 278 278 278 278 278 279 279 278 279 281 283 284 286 291 292 291 290 291 292 292 292 292 293 293 294 295 296 298 300 303 308 310 311 310 309 309 309
285 285 280 284 277 277 273 275 273 274 269 270 271 273 270 278 277 278 279 279 279 278 278 278 278 279 279 279 279 279 280 280 281 281 282 282 282 281 280 280 280 280 280 280 280 279 279 278 278 278 278 277 277 276 276 276 276 276 277 277 277 277 277 276 276 276 277 277 278 279 282 283 285 287 291 292 292 291 291 291 291 292 292 292 293 294 295 296 298 301 306 309 310 309 309 308 308
278 277 277 279 279 280 276 276 272 272 269 269 269 267 272 277 279 280 279 279 279 278 278 279 279 279 279 279 279 279 280 280 281 281 282 282 281 281 280 280 280 280 280 279 279 278 278 278 277 277 276 275 275 275 275 275 275 275 275 275 275 275 276 276 275 275 276 276 277 278 280 283 284 285 287 291 292 291 291 291 291 291 291 291 292 292 294 295 296 299 304 309 309 309 308 308 307
280 279 278 279 276 273 271 270 276 272 272 269 268 268 274 279 281 281 280 280 280 280 279 279 279 279 279 279 279 279 280 280 281 281 281 281 281 281 280 280 280 279 279 278 278 277 277 276 276 276 275 275 274 274 274 274 274 274 274 274 274 274 274 274 274 274 275 276 277 278 279 281 282 285 287 289 289 290 290 290 290 291 291 291 291 292 293 294 295 297 300 308 309 308 308 307 307
Wind_Speed
7 6 5 5 5 4 3 2 1 2 1 0 4 3 1 1 2 3 6 4 3 2 3 3 4 3 4 2 3 3 3 3 2 2 1 1 2 2 2 3 3 2 1 2 1 5 5 5 4 1 1 2 2 4 6 8 8 9 9 10 11 11 12 12 12 13 12 11 12 12 12 11 11 11 11 11 12 13 14 13 10 10 13 14 14 14 13 12 12 12 12 12 11 8 6 11 11
6 4 3 2 3 2 1 3 0 2 2 4 4 3 0 0 2 5 5 5 3 3 3 3 2 3 1 5 3 5 2 1 6 3 1 3 7 6 6 8 6 6 3 2 4 2 5 5 6 3 3 1 5 7 8 8 10 9 10 11 11 11 11 12 12 12 12 11 12 11 13 12 12 12 11 12 12 13 14 14 12 13 14 15 16 15 15 14 13 13 13 12 12 9 7 12 13
6 6 4 3 3 2 4 1 2 3 2 4 3 3 0 4 6 5 6 5 4 3 2 2 2 1 3 3 2 3 2 7 7 4 1 8 7 7 7 6 6 6 4 3 3 6 1 7 9 6 5 4 4 8 9 9 10 11 11 12 12 12 12 12 12 12 13 11 12 12 13 13 14 14 14 13 14 13 14 14 13 13 14 14 15 15 15 14 14 13 13 12 12 10 9 11 13
5 5 3 3 2 2 2 1 2 3 2 3 5 3 4 4 6 5 5 5 5 1 1 2 4 1 2 4 4 6 2 4 6 5 2 5 4 5 7 7 9 6 5 1 1 3 4 5 9 8 8 5 5 7 8 8 9 10 10 12 12 12 13 13 13 13 13 12 13 12 14 14 14 15 14 14 12 13 14 14 13 14 14 14 14 15 15 14 14 14 13 13 13 11 11 12 13
3 3 3 3 1 2 1 2 3 3 5 4 3 4 5 5 6 4 2 7 4 3 3 3 1 0 2 0 0 2 3 3 8 10 3 3 4 5 7 7 7 6 7 4 0 2 4 5 8 7 7 7 7 7 7 7 9 9 9 10 12 13 13 13 13 13 13 12 13 13 13 14 14 14 15 14 12 13 13 14 14 14 14 14 14 15 14 14 14 14 14 14 13 12 11 13 13
4 4 3 0 2 2 1 2 1 6 2 2 3 3 6 6 6 4 3 7 6 4 1 3 2 4 1 1 1 2 2 2 3 7 6 7 7 8 7 6 5 7 6 7 3 4 6 8 5 1 4 7 7 8 8 6 6 10 11 11 13 14 14 13 13 13 13 13 14 14 13 13 14 14 14 13 12 12 11 8 6 8 11 14 15 14 15 16 15 14 13 14 14 13 11 13 14
2 2 2 1 3 1 2 3 6 3 1 3 3 5 5 5 4 5 4 3 0 5 3 3 3 4 2 1 1 3 10 7 5 4 6 5 8 8 7 7 5 7 10 10 7 6 6 7 6 4 6 6 7 8 9 9 8 7 9 12 13 13 14 14 14 14 13 13 14 14 13 14 14 14 14 11 10 5 6 8 10 10 9 11 12 14 15 16 16 16 14 14 15 14 11 13 14
2 1 0 2 3 2 3 1 4 3 2 4 3 5 5 5 3 3 4 5 3 3 4 4 2 2 2 5 2 5 10 10 8 9 8 8 7 7 6 8 8 6 7 7 7 6 6 5 3 2 1 4 7 9 9 10 11 8 7 9 11 13 14 14 14 13 13 12 13 14 14 14 14 13 13 11 6 7 8 9 10 10 11 11 12 13 14 15 16 16 16 15 13 13 10 13 15
2 2 0 1 2 2 4 3 2 2 4 1 5 5 2 4 4 3 3 2 2 2 3 5 3 3 3 7 8 4 11 8 9 8 9 9 9 9 7 8 8 8 7 7 8 7 6 6 3 2 3 6 7 8 11 12 12 13 12 10 10 11 13 13 14 13 12 13 14 13 13 14 15 13 13 12 11 11 11 10 10 11 12 13 13 14 15 15 16 16 17 16 15 10 11 13 16
2 3 1 1 2 4 4 3 4 1 4 3 5 5 5 3 3 3 1 2 2 1 6 2 3 1 5 4 8 10 6 6 6 13 11 9 7 7 6 6 6 6 6 6 5 5 5 8 5 3 4 6 8 10 10 10 12 13 13 13 13 11 11 11 12 13 13 13 13 14 14 14 12 12 11 12 14 14 12 12 11 12 13 14 14 15 15 16 16 17 16 17 16 10 12 14 16
2 3 1 1 1 3 2 3 4 2 4 4 5 5 4 2 2 3 5 4 2 2 4 10 3 4 4 9 4 5 7 12 19 16 12 10 6 6 6 5 6 5 6 7 6 5 5 5 9 6 6 6 7 9 10 11 10 12 14 13 13 14 13 12 13 12 11 11 12 12 14 14 13 13 13 14 14 13 12 12 12 12 13 14 14 14 14 14 15 15 14 14 14 13 14 15 16
2 3 1 3 5 3 1 2 2 4 4 4 4 4 1 2 2 4 5 4 5 9 7 6 1 3 3 3 3 5 14 18 14 10 11 11 9 5 5 6 6 6 6 6 6 5 5 5 4 7 7 8 8 8 10 10 12 13 12 12 14 14 14 14 11 10 11 11 11 12 13 13 14 11 10 15 14 14 12 12 13 14 13 14 14 14 13 14 14 14 13 12 12 12 14 15 16
1 3 3 2 2 3 1 1 2 2 3 3 4 2 1 3 5 4 3 3 8 7 6 4 5 2 2 4 4 8 19 14 13 11 10 11 9 11 8 7 9 10 10 10 10 11 10 8 7 5 7 9 7 10 10 10 11 12 15 14 13 13 13 13 11 11 11 12 12 12 12 12 11 13 15 16 17 13 12 12 13 13 13 13 13 14 14 14 13 14 12 10 11 12 14 15 16
0 2 1 3 5 1 2 3 3 3 2 3 4 1 1 1 4 3 2 4 6 3 2 4 3 2 3 4 10 11 11 13 14 12 10 10 8 9 10 9 10 12 11 12 13 13 12 13 12 8 7 5 5 5 9 12 12 11 12 13 13 14 14 14 14 13 11 12 11 11 11 12 13 14 17 18 15 13 12 12 12 13 14 13 13 13 13 13 13 13 12 10 10 11 16 16 19
1 3 0 2 4 0 1 2 2 2 3 3 0 2 3 6 4 2 5 2 5 2 2 3 4 1 6 10 8 9 10 11 12 10 8 9 8 8 9 9 8 9 9 10 10 12 12 12 12 12 10 8 7 6 6 7 10 12 13 14 14 14 14 14 14 13 13 12 12 12 11 11 13 14 15 14 14 13 11 11 11 13 14 14 13 13 13 13 12 12 12 11 10 12 17 17 19
1 2 1 2 3 1 1 1 2 1 2 2 3 2 4 7 2 2 2 1 1 1 0 2 6 8 9 13 6 8 11 10 9 9 9 9 7 7 8 9 9 10 9 10 10 12 11 11 12 11 12 13 11 10 8 6 9 11 10 13 13 14 15 15 15 14 13 13 13 12 12 11 10 11 15 12 13 13 12 10 10 14 15 14 13 13 12 12 12 12 12 12 12 15 16 17 18
1 0 1 2 5 2 3 2 5 2 3 3 1 5 4 3 5 3 0 3 2 4 3 9 13 13 13 9 6 9 10 8 9 9 9 8 7 7 7 7 7 7 7 9 9 11 12 12 14 10 11 12 12 11 9 8 6 9 9 9 13 14 14 15 15 14 11 11 12 11 11 10 8 7 9 9 12 11 11 13 13 13 13 13 12 13 13 12 11 12 12 12 14 16 16 17 17
1 1 1 4 2 5 3 3 3 1 3 6 7 5 4 3 3 2 5 4 1 7 7 8 18 13 10 7 8 8 8 10 10 11 11 9 7 8 8 8 9 10 9 9 9 12 11 11 13 13 10 12 13 10 7 7 7 8 6 7 5 8 11 13 11 10 10 9 12 11 8 8 8 8 8 9 9 10 11 14 14 14 14 13 12 12 12 11 10 11 12 12 14 15 16 10 11
1 2 2 0 2 0 3 2 4 5 4 5 5 5 5 3 3 3 3 8 3 5 6 7 13 12 12 11 9 10 9 10 10 11 12 12 11 11 9 8 9 10 11 10 10 12 12 11 12 14 13 13 13 12 8 8 9 8 7 7 6 8 7 9 8 9 9 9 9 9 8 8 8 8 8 8 8 13 13 14 15 15 14 14 13 12 11 9 10 11 12 12 13 14 10 7 8
0 1 2 1 1 1 3 3 5 4 6 6 6 5 4 4 2 2 1 4 5 8 4 6 9 10 10 8 9 8 10 9 10 11 12 12 11 10 11 10 10 9 10 9 9 9 13 12 12 13 12 13 13 11 10 9 8 8 8 8 8 7 7 6 6 8 8 8 9 9 8 9 9 8 10 15 12 9 10 15 17 17 15 12 13 8 8 8 11 10 10 11 10 7 8 8 8
1 1 1 1 1 1 1 3 4 4 7 4 3 4 2 5 2 1 3 5 5 6 9 9 9 8 9 8 7 7 9 9 9 9 11 11 11 9 10 10 9 9 7 7 7 9 11 12 11 12 13 11 13 12 11 10 10 9 7 7 7 7 7 7 8 6 6 8 9 8 9 8 8 8 8 7 7 7 7 7 8 8 7 8 9 6 6 6 7 6 5 8 6 7 7 8 9
1 1 4 2 1 0 2 3 5 4 5 3 4 3 4 5 1 2 5 8 3 4 8 10 10 9 8 9 6 7 9 9 10 10 10 10 11 11 11 9 9 8 9 9 10 11 12 13 11 12 12 11 13 11 11 10 11 9 10 10 9 7 7 7 6 7 8 7 7 8 8 9 8 9 8 7 7 8 7 7 8 7 7 8 8 7 7 6 6 6 6 6 6 5 9 8 10
2 2 4 4 1 1 0 2 3 5 2 3 3 4 3 2 2 5 7 6 6 10 10 10 9 9 9 7 7 9 9 10 10 10 10 11 11 11 11 10 10 9 8 9 9 11 12 13 12 14 12 12 13 13 11 10 9 8 9 10 11 9 8 8 7 8 8 10 9 8 8 8 8 8 9 9 8 7 8 7 8 8 8 8 7 8 7 7 6 5 6 5 6 6 7 10 9
2 0 3 3 2 1 1 3 5 1 1 2 3 4 3 4 3 2 7 9 11 10 11 9 9 8 8 10 9 9 8 9 8 9 8 8 8 8 8 9 8 7 7 8 8 9 11 12 13 13 11 12 12 12 12 11 10 10 9 8 9 10 11 10 9 8 8 9 11 10 9 8 8 8 9 10 8 6 7 7 7 8 8 8 7 8 7 6 5 5 6 6 7 7 8 8 10
3 1 1 3 1 1 0 2 1 1 1 2 5 5 3 3 4 4 9 10 10 10 9 9 9 8 7 9 9 7 8 8 9 7 6 6 6 6 6 7 9 9 10 10 9 9 10 10 11 13 12 12 12 13 11 10 10 11 10 9 8 9 9 9 10 10 9 9 10 11 10 9 8 7 9 8 7 8 8 8 8 9 8 8 6 6 7 7 6 6 7 8 6 6 5 10 11
2 1 0 1 2 3 3 2 2 0 0 3 4 4 2 1 6 5 9 11 10 10 9 8 8 7 8 9 8 8 8 8 6 8 7 5 5 7 9 10 10 11 9 8 9 8 9 11 10 11 12 11 11 11 10 10 11 10 11 11 10 9 8 9 9 9 9 10 10 10 11 9 9 9 8 7 6 4 5 7 11 8 9 8 7 7 7 8 7 6 7 7 8 6 7 4 11
0 2 1 2 3 4 3 4 2 2 1 4 4 3 2 4 5 3 9 11 10 9 9 7 7 9 9 8 6 6 8 7 7 4 6 7 8 9 6 6 7 8 7 8 8 9 9 10 10 11 10 9 8 9 9 11 11 11 11 11 11 10 10 10 9 9 10 10 10 11 11 11 9 9 9 10 9 8 9 9 11 8 8 9 7 8 7 8 8 8 9 9 9 8 7 5 5
4 3 3 5 4 3 4 4 3 1 1 4 4 4 4 4 1 5 11 10 10 11 8 7 6 7 8 8 7 5 5 4 4 5 8 9 8 8 7 8 9 9 10 9 9 8 11 12 12 13 13 13 13 13 11 11 11 10 11 10 11 12 13 11 10 9 9 10 10 11 11 11 10 10 10 9 8 8 8 10 13 10 8 8 8 9 8 8 9 8 7 7 8 8 8 7 2
2 2 4 5 5 4 4 4 3 4 2 2 4 4 3 5 5 11 13 10 10 10 8 7 7 7 6 7 5 4 4 4 4 7 7 6 6 8 8 7 9 8 6 7 10 10 11 11 11 12 12 12 12 13 11 11 11 11 10 10 10 11 11 12 11 11 11 11 11 12 12 13 11 10 11 11 10 9 8 8 8 9 8 8 8 10 10 8 8 7 7 6 7 7 8 7 10
3 1 2 6 5 4 7 4 5 5 1 2 4 4 2 8 6 13 13 11 10 9 7 6 6 6 5 5 5 4 4 4 5 6 5 5 6 7 7 7 7 7 8 6 8 11 9 7 8 9 11 13 13 11 11 10 11 10 10 9 10 11 10 10 12 12 13 12 11 12 12 12 12 11 11 11 10 9 10 12 10 8 7 7 8 10 10 9 9 9 8 7 6 9 9 9 10
2 1 2 3 4 4 7 3 6 6 3 3 1 1 7 4 7 13 10 10 10 8 7 6 5 5 5 4 4 4 4 4 4 6 6 6 6 6 6 6 7 8 8 8 10 11 11 9 9 9 12 13 12 12 13 12 11 10 10 10 10 10 10 10 10 11 12 12 13 12 13 13 13 13 13 12 11 10 9 10 11 10 8 9 8 9 10 9 9 10 9 9 9 10 10 9 8
3 2 3 2 2 1 5 1 5 3 2 5 1 3 1 4 8 11 7 8 9 10 7 6 5 5 4 4 4 3 4 4 5 5 6 5 5 4 6 6 7 7 9 8 8 10 12 10 11 11 12 14 13 14 14 14 13 11 9 9 10 9 9 10 11 11 11 11 12 12 14 14 13 14 14 13 13 11 10 10 10 8 9 9 9 10 10 11 9 10 10 10 10 9 9 8 5
3 2 2 3 2 2 2 3 3 2 1 2 2 3 4 0 6 8 6 8 8 10 7 5 7 5 4 4 3 2 3 4 5 4 5 6 4 5 7 6 7 7 8 9 10 12 13 11 11 13 14 15 14 15 15 14 14 13 12 10 10 9 9 10 10 10 11 11 11 12 12 12 13 15 15 14 14 14 11 12 11 11 10 10 9 10 11 11 11 11 10 10 10 14 13 12 9
2 3 2 3 3 2 3 4 3 4 2 1 2 2 3 1 9 6 6 7 9 8 7 6 5 4 5 4 3 3 4 4 5 5 6 6 5 5 5 5 5 5 5 7 7 10 11 8 8 9 11 11 11 11 12 14 14 14 12 11 10 9 9 9 9 10 11 10 11 11 12 13 13 15 15 14 14 14 13 13 12 12 11 11 9 10 10 11 12 13 13 11 10 10 11 13 12
3 6 4 4 4 5 7 7 3 2 2 1 4 5 6 3 9 6 6 7 8 8 7 7 5 5 4 4 3 4 4 4 4 4 4 4 4 4 4 4 4 5 5 6 7 8 8 7 7 9 10 11 12 13 13 13 13 13 13 12 10 9 8 8 10 10 9 10 10 12 13 12 12 14 15 15 13 13 13 12 11 12 10 11 11 11 10 12 13 12 15 13 10 10 13 13 12
3 3 3 4 5 5 6 1 0 1 1 3 3 5 5 5 5 5 6 6 7 7 6 5 5 4 4 4 4 2 3 2 1 3 2 3 4 6 6 6 5 5 6 8 11 11 10 10 9 10 9 11 11 12 12 12 12 12 13 13 12 11 9 9 9 10 9 9 11 12 12 10 11 13 15 14 14 13 14 12 12 13 12 11 13 13 12 12 14 16 16 16 13 8 7 9 9
3 3 4 6 7 7 7 3 3 2 2 3 3 6 10 7 4 11 7 6 7 7 6 4 4 4 4 5 3 2 2 1 1 3 2 4 5 6 5 5 5 6 6 7 10 9 10 12 13 14 11 12 11 13 12 13 13 13 12 13 14 13 11 11 10 9 9 9 11 12 10 9 11 12 12 13 13 14 13 14 13 12 10 11 12 15 16 16 15 16 16 14 17 14 12 10 11
3 4 4 7 6 7 2 4 5 4 2 3 4 12 12 7 5 11 7 7 8 7 6 5 5 4 4 4 1 2 0 0 3 4 4 4 5 5 5 6 6 8 7 8 9 9 10 12 12 13 13 13 14 14 14 13 12 12 13 14 14 14 14 13 12 9 10 10 12 11 8 9 11 11 11 12 13 12 13 13 13 13 11 12 14 13 15 15 17 16 15 13 13 17 14 15 13
4 5 6 5 6 2 5 1 2 1 3 6 7 10 8 7 3 11 10 7 5 5 5 5 5 5 3 3 3 1 3 3 3 3 3 5 6 8 7 6 6 6 8 9 8 11 12 12 12 13 13 14 14 15 15 14 14 14 13 14 15 15 14 13 12 12 12 11 11 10 8 9 10 10 11 12 11 12 12 13 13 13 13 12 11 15 15 17 17 18 18 17 13 9 8 13 17
6 6 5 5 1 2 4 1 2 4 2 6 5 9 8 5 6 7 5 5 4 5 6 4 5 4 4 3 3 1 2 1 3 3 3 5 6 6 7 7 8 8 9 9 9 11 10 11 13 14 14 13 14 15 16 17 17 17 16 15 15 15 16 15 15 14 12 11 11 8 8 8 9 11 11 12 11 11 11 12 14 12 14 16 12 11 14 17 16 16 18 17 18 15 10 11 15
2 4 6 6 1 0 2 4 8 8 11 3 6 9 7 6 8 5 5 6 7 6 6 5 4 3 5 3 2 4 2 2 2 3 3 5 7 7 8 9 9 10 10 10 11 12 11 14 15 14 14 16 16 17 19 18 16 15 14 15 14 15 14 12 12 13 12 10 10 9 9 8 9 10 10 11 12 11 11 10 12 15 13 11 12 14 16 17 17 18 19 18 19 18 16 13 13
3 1 2 2 1 3 3 5 7 4 5 1 2 6 3 8 9 8 7 6 7 8 8 7 4 4 3 3 3 4 1 1 2 3 3 5 7 9 10 9 9 9 10 10 11 13 14 15 14 15 17 18 18 18 19 16 15 15 15 15 17 15 15 13 12 13 13 14 13 11 9 8 8 9 9 10 11 10 11 10 11 14 15 12 10 11 11 15 18 17 19 19 21 19 19 16 15
1 2 0 2 2 2 4 5 2 4 2 2 4 1 10 4 6 9 8 8 8 6 5 5 5 5 3 3 3 2 1 3 2 3 4 5 10 11 12 12 10 10 11 10 11 13 14 13 15 18 17 17 17 17 17 16 15 14 17 17 17 18 17 14 11 12 13 13 11 12 11 10 8 8 9 9 9 11 11 11 10 11 13 14 12 12 12 12 15 19 19 18 18 17 16 18 21
4 1 2 0 3 4 5 5 5 8 5 6 6 6 9 9 7 8 12 10 8 7 5 6 6 3 4 3 1 2 2 2 2 3 4 6 10 12 13 13 11 12 12 12 13 12 14 18 18 18 17 19 18 17 16 16 17 15 16 18 17 17 17 18 17 14 13 13 14 14 11 10 8 6 8 8 9 9 11 12 11 11 11 12 14 12 13 13 12 14 17 19 17 16 19 19 20
2 1 1 3 3 6 7 6 7 7 6 7 5 6 4 5 4 8 13 10 9 8 8 6 5 4 4 2 2 1 1 2 2 4 6 8 10 12 12 13 13 13 13 14 14 14 15 16 18 19 20 20 19 19 17 17 18 17 17 17 18 15 15 16 16 15 14 13 14 14 12 10 8 6 6 7 8 9 10 11 11 10 11 13 12 15 16 17 18 15 16 16 17 16 18 18 19
1 2 3 5 5 6 6 5 7 6 2 12 3 4 5 10 3 6 6 6 10 9 9 7 4 5 1 2 0 1 2 2 2 5 6 7 9 11 11 12 12 12 12 13 15 15 16 17 19 21 22 20 20 19 17 16 17 17 18 20 23 22 19 18 16 17 16 14 15 16 15 12 9 7 5 5 7 8 9 10 9 9 9 11 12 17 17 17 19 18 19 18 18 19 14 15 19
3 2 4 4 4 7 5 5 5 3 7 10 6 11 8 6 5 9 10 6 8 7 5 5 5 3 2 1 0 2 3 3 5 5 5 7 9 10 11 12 12 13 12 13 14 17 17 17 18 21 24 22 19 16 16 19 18 15 16 21 23 24 24 22 21 21 16 14 13 14 13 11 8 7 5 5 5 7 8 8 9 8 7 8 10 15 18 15 17 19 18 18 19 19 16 16 16
1 1 1 5 7 5 3 3 3 1 6 1 6 1 5 7 3 3 1 3 8 9 9 7 3 3 1 0 2 4 4 5 5 4 6 9 10 11 10 11 13 14 14 15 16 18 18 17 18 22 23 22 20 20 21 22 18 16 16 17 18 20 22 20 20 21 19 16 14 14 13 12 10 7 6 5 5 6 7 7 8 9 7 7 10 12 16 16 13 15 18 18 17 18 16 15 16
1 1 3 2 5 4 3 4 3 5 9 1 4 6 7 9 7 3 7 6 6 6 7 6 3 1 2 4 2 3 4 5 4 5 6 9 10 12 12 14 14 13 14 16 18 18 18 17 19 21 23 24 23 20 21 24 19 16 16 15 15 16 19 21 21 19 19 19 15 14 13 13 10 7 6 6 5 7 6 6 7 8 8 7 8 10 13 19 14 11 13 18 18 19 17 18 16
2 2 2 0 3 2 7 4 3 4 0 2 5 4 6 6 8 8 10 7 7 9 8 4 5 2 2 1 2 4 4 3 4 4 6 8 10 10 11 13 14 14 16 19 18 18 18 18 19 20 24 25 25 21 21 23 20 16 15 13 13 13 17 18 19 17 17 16 17 18 15 12 11 9 7 6 6 7 6 6 7 8 8 9 8 10 12 15 19 15 15 16 18 16 17 19 17
3 1 2 3 2 2 6 1 4 5 5 4 2 7 5 3 3 2 12 9 8 7 7 6 4 3 2 1 3 2 3 3 4 5 7 9 10 11 12 14 13 14 16 18 17 17 17 19 19 23 25 26 24 24 23 23 18 17 18 14 11 13 15 15 16 18 18 17 16 18 17 14 12 9 8 7 5 6 7 6 6 7 8 9 9 9 11 14 18 17 14 17 17 17 17 18 16
2 1 4 2 5 0 8 1 1 4 7 9 4 6 2 2 2 5 9 8 7 6 7 4 3 4 3 3 2 3 3 4 4 6 8 9 9 10 12 14 14 14 16 17 18 17 18 19 20 23 25 26 23 23 23 22 23 17 17 20 18 14 11 14 15 15 18 21 22 19 19 16 13 11 7 6 5 6 7 7 7 7 7 9 9 10 11 12 16 19 15 16 17 13 17 21 19
1 3 2 3 0 1 3 4 1 1 1 14 2 7 4 3 0 4 5 5 7 6 5 5 2 3 3 1 1 1 2 3 5 6 7 9 9 11 12 13 13 14 16 18 20 19 19 19 18 22 24 23 23 21 20 20 21 20 18 18 17 12 15 18 17 19 19 15 15 18 21 19 13 9 7 6 6 5 7 7 7 7 7 7 9 10 11 12 15 17 16 17 18 17 15 19 17
3 2 2 2 2 3 2 4 3 1 6 9 6 9 9 5 6 4 5 5 4 3 4 3 2 1 1 1 1 2 4 4 5 6 7 7 9 12 13 11 12 15 16 16 18 18 16 15 17 20 21 22 22 21 20 19 20 19 18 17 15 17 17 17 16 17 17 18 17 15 16 19 18 11 7 6 6 6 7 7 7 7 6 6 9 10 11 12 13 15 17 16 17 18 17 15 15
2 1 1 2 1 1 1 6 3 2 8 8 6 5 8 9 7 6 7 7 6 3 2 1 3 2 1 1 2 2 4 5 5 7 8 7 10 11 11 11 13 14 14 14 15 16 15 15 16 17 19 19 20 19 19 18 18 15 14 17 19 18 13 14 15 16 16 18 19 18 19 17 19 19 9 7 7 6 7 7 6 7 6 6 8 10 11 11 12 14 16 15 16 17 17 18 15
2 1 2 0 1 3 4 5 3 1 11 5 14 5 8 5 4 14 10 7 4 1 1 1 1 1 1 2 3 4 5 6 6 7 8 10 11 11 9 11 14 15 14 14 14 14 17 17 18 19 19 20 21 21 20 20 20 19 19 18 16 16 15 14 15 17 18 19 19 19 19 19 18 17 17 8 7 8 8 7 6 7 7 6 7 9 10 11 12 13 15 14 16 18 18 18 17
2 3 4 0 2 1 2 2 4 4 4 5 11 16 2 1 2 7 6 5 4 4 1 0 1 0 1 1 3 4 5 7 7 9 10 11 12 10 10 12 13 13 12 12 13 16 16 16 19 20 20 21 20 20 19 18 17 20 20 18 19 19 20 14 16 17 18 17 18 18 18 16 16 16 16 14 10 9 8 8 6 6 7 7 7 8 9 10 11 14 15 17 16 18 19 17 16
8 9 11 11 7 4 4 10 4 3 5 6 4 17 10 1 2 5 5 4 5 2 0 2 1 1 1 2 3 4 6 6 7 9 9 11 10 10 13 14 14 14 15 16 16 14 17 19 18 19 18 17 18 19 19 19 18 18 19 19 19 17 17 17 18 18 18 17 16 16 17 18 18 17 14 16 13 9 7 7 6 6 6 6 7 8 9 9 11 13 17 16 16 19 19 18 17
Wind_Direction
280 245 221 226 237 254 293 206 325 164 265 156 74 36 90 157 37 18 31 23 39 89 21 321 11 344 8 316 281 318 326 312 39 333 352 242 109 67 52 11 358 348 349 311 68 134 149 169 177 191 348 282 218 213 222 220 221 223 228 230 233 237 236 233 239 238 243 252 252 243 239 241 243 244 252 256 260 259 259 261 254 248 257 260 260 262 260 259 256 254 249 244 241 235 215 175 181
274 291 273 264 269 294 217 178 307 292 250 91 47 70 14 173 171 41 38 45 47 21 11 335 311 3 292 271 297 293 260 216 43 31 81 83 123 48 19 16 6 346 334 340 331 138 154 160 181 191 210 245 230 220 229 229 229 228 228 228 233 237 236 239 239 240 239 240 239 243 252 246 247 253 253 252 262 261 265 265 264 264 260 258 261 263 263 260 256 253 251 246 243 237 213 177 181
311 309 286 211 261 232 319 277 276 271 189 87 55 67 194 33 42 35 48 53 54 24 350 267 270 298 316 240 231 43 298 48 39 28 61 35 19 360 2 3 350 318 322 31 359 333 130 158 178 188 210 225 245 233 230 236 237 237 239 237 237 237 238 241 244 242 243 235 242 239 244 246 247 250 256 253 255 260 260 262 263 261 260 259 263 265 265 263 260 254 250 248 246 240 194 177 182
292 281 294 313 298 121 264 203 222 278 22 54 107 52 49 39 50 29 52 74 76 357 332 20 354 103 317 348 8 292 55 33 53 359 32 26 19 331 346 359 328 318 322 92 342 311 334 137 170 184 200 220 240 244 249 250 248 247 245 247 245 242 241 242 243 244 244 241 239 240 242 250 254 258 259 261 262 266 263 259 256 257 254 254 256 262 263 263 261 258 252 248 246 244 186 179 184
282 266 229 296 307 233 309 252 293 28 43 337 83 67 52 42 47 16 51 94 70 75 12 359 299 138 109 196 283 12 348 325 33 45 9 73 353 3 351 341 327 337 334 326 60 10 32 106 162 187 206 211 221 239 254 281 268 258 258 258 253 250 246 246 250 248 246 244 246 247 250 253 257 258 257 259 258 259 263 260 253 250 252 255 259 259 263 263 261 259 256 250 246 241 186 184 184
238 267 180 182 245 19 311 295 240 77 69 343 23 59 53 43 31 352 357 92 124 92 105 36 10 329 13 329 36 75 24 46 9 47 15 8 2 354 347 334 334 332 338 332 10 44 75 54 39 21 227 235 238 236 237 253 279 272 259 256 256 253 249 251 254 254 255 255 253 252 253 257 254 253 258 258 255 254 257 272 284 278 266 259 256 260 263 265 262 259 257 254 250 246 186 188 193
316 334 165 245 270 237 260 282 49 83 358 335 44 53 36 48 20 353 358 101 102 91 347 54 352 315 230 319 118 52 56 42 45 12 39 341 356 351 344 344 352 355 359 351 350 48 71 67 62 30 354 327 291 268 257 256 256 259 270 266 261 258 256 254 255 256 258 259 260 259 258 255 255 258 258 258 255 223 227 249 264 267 270 269 269 268 265 267 269 264 254 252 253 249 185 190 196
236 6 327 251 310 142 251 171 63 21 66 27 63 59 37 44 10 7 351 11 65 15 147 114 56 353 58 339 92 44 56 68 71 25 9 2 345 346 352 356 357 6 359 344 351 9 16 61 55 76 259 277 282 285 281 266 261 259 258 265 270 270 265 261 256 254 255 259 262 261 258 263 260 258 260 255 245 239 237 240 250 259 264 267 266 269 276 274 272 273 267 256 247 251 186 195 197
218 141 234 14 255 230 264 111 107 72 117 122 100 106 74 42 4 353 11 324 54 341 70 56 1 359 357 335 69 58 43 36 41 23 14 3 353 358 359 4 4 2 358 2 347 355 349 41 10 329 299 277 269 267 268 266 270 265 262 264 261 259 265 268 266 263 266 263 266 264 266 267 266 259 253 258 245 238 238 236 242 249 254 258 259 262 270 274 274 273 273 261 252 233 187 195 202
258 144 265 278 325 284 234 81 107 40 94 69 76 67 41 38 3 320 296 338 66 324 60 34 102 352 348 305 90 27 32 35 20 22 9 2 348 3 358 359 13 2 358 356 347 340 336 330 325 304 284 287 283 281 277 275 268 265 268 267 264 262 257 251 261 263 256 260 259 261 262 262 264 260 248 241 237 233 229 236 238 246 251 254 256 258 262 269 275 278 277 274 258 226 193 197 203
288 170 251 329 240 247 13 88 98 141 112 129 100 76 39 349 62 301 22 341 20 85 72 357 108 4 304 73 65 175 59 37 30 14 354 349 351 357 357 346 12 6 0 345 342 337 332 330 328 294 283 272 275 280 283 284 277 274 268 265 268 269 264 255 246 250 257 261 262 257 256 259 258 247 233 236 233 230 231 235 240 245 252 258 258 257 260 269 274 277 276 272 263 247 190 202 206
320 335 297 289 280 348 1 43 72 103 97 126 92 64 358 333 251 15 14 350 350 71 33 356 1 336 309 75 102 34 34 36 31 11 360 350 352 356 359 342 5 0 359 343 337 333 330 324 317 316 291 277 277 269 274 278 280 278 277 280 276 268 268 266 260 250 251 254 256 256 251 249 251 252 260 256 243 233 228 235 245 251 254 257 256 255 260 269 275 276 274 266 256 244 200 194 207
343 309 349 321 277 358 316 300 99 117 133 81 82 81 205 9 44 26 351 334 41 42 30 10 282 281 55 351 98 52 37 23 27 15 358 355 359 16 7 3 10 12 3 356 360 0 356 347 339 331 325 314 276 277 275 270 272 274 274 275 274 275 275 275 266 261 256 254 257 259 257 247 240 241 238 243 245 234 229 234 240 244 246 248 253 257 260 267 274 274 269 259 249 239 209 187 198
269 3 292 276 301 257 36 317 47 17 69 94 52 111 350 85 63 29 331 17 60 64 68 335 337 335 35 332 35 24 27 24 26 12 359 354 6 26 22 13 32 19 12 13 14 8 4 359 351 343 337 327 318 292 268 267 267 264 264 267 270 274 275 274 270 264 255 252 255 257 252 243 232 232 233 232 231 231 231 235 235 238 242 243 248 253 260 265 269 270 265 254 248 221 207 194 195
293 356 273 256 297 20 347 61 346 30 75 86 261 44 317 87 77 54 64 349 63 58 107 30 308 330 22 48 13 28 22 22 24 9 3 360 15 25 26 21 28 23 15 17 17 11 6 1 357 350 344 339 328 318 316 302 275 259 262 258 261 263 265 268 270 268 265 261 254 250 248 241 232 233 237 231 232 232 229 229 234 240 245 246 245 248 254 261 264 265 262 252 233 210 202 200 197
326 347 307 300 278 57 335 14 58 316 78 101 164 127 53 105 87 67 74 326 251 9 291 90 36 65 62 62 45 38 34 28 26 16 12 11 14 24 25 23 25 22 18 18 16 16 7 3 2 356 353 346 342 335 322 304 311 310 275 267 265 261 260 260 262 263 263 263 262 253 246 241 236 230 229 231 233 232 228 223 224 237 241 244 247 247 250 257 260 259 257 243 225 208 202 200 198
339 316 304 205 267 87 332 1 34 23 290 114 212 33 60 30 38 106 185 133 230 150 95 56 61 67 65 60 51 50 39 37 30 28 24 19 14 25 20 20 21 20 15 15 16 19 6 7 1 356 353 348 340 335 325 318 305 298 303 274 261 262 260 260 258 260 260 260 262 259 250 241 235 231 232 230 232 233 230 225 226 229 233 235 240 243 244 246 255 254 249 236 218 207 202 198 193
260 208 264 298 348 69 323 2 9 13 329 12 5 18 30 29 30 21 327 216 217 77 56 63 76 67 66 66 52 50 47 38 34 34 30 26 17 25 22 18 16 13 10 9 6 16 5 3 2 357 349 352 346 336 328 325 317 305 290 294 277 250 255 256 260 258 252 248 249 251 245 236 229 230 227 219 225 226 227 224 224 226 227 229 232 237 239 244 249 250 246 228 215 207 201 197 196
238 301 268 154 356 139 316 349 338 7 4 354 9 3 3 50 28 14 1 63 75 59 52 45 78 68 58 48 50 46 43 43 38 37 34 30 22 22 24 14 16 13 9 7 3 11 6 1 359 360 354 352 352 342 334 325 322 320 316 305 294 283 253 243 246 247 249 248 247 240 238 234 230 229 228 223 212 214 215 216 219 219 222 224 227 229 236 240 242 244 244 227 213 206 196 203 181
336 72 308 50 39 63 8 19 330 353 6 358 358 348 322 44 20 300 33 81 72 58 30 56 62 66 63 58 46 46 43 41 39 39 36 31 25 19 20 16 14 14 8 6 360 7 4 2 357 358 354 355 354 348 340 335 328 328 320 315 311 305 300 287 248 243 244 245 246 245 237 235 236 232 229 229 224 210 212 209 211 213 213 217 218 222 230 233 236 239 242 224 212 206 193 191 173
27 204 263 129 7 240 30 336 331 360 28 350 318 298 332 16 345 291 315 135 63 60 60 77 71 70 71 62 50 44 46 44 39 41 39 34 31 22 20 14 12 6 0 357 2 7 3 1 357 358 352 356 356 348 341 337 331 321 311 309 303 302 300 299 299 280 252 243 243 244 239 235 238 241 236 224 216 212 200 199 204 203 203 207 204 212 211 213 214 216 226 223 209 203 198 182 171
34 272 109 113 328 165 34 326 332 20 4 318 314 336 21 309 285 46 48 87 78 71 84 78 84 75 73 63 55 47 42 42 37 33 38 33 31 25 19 15 8 7 355 5 4 2 1 358 360 358 353 357 356 346 338 334 338 336 332 324 319 310 305 301 300 302 296 271 254 247 245 244 238 237 238 234 220 212 201 190 192 196 198 202 190 207 206 206 201 198 203 214 210 192 185 180 175
290 147 81 67 35 336 61 302 359 42 359 321 328 7 325 301 95 74 76 88 94 87 87 85 82 88 83 77 63 50 42 39 34 32 30 30 23 26 16 14 6 3 358 3 3 3 356 355 358 360 351 359 353 345 340 342 336 333 331 328 324 318 309 304 300 296 296 298 286 268 256 246 241 235 229 232 228 211 209 195 193 195 201 201 191 193 196 193 171 177 184 189 186 185 193 175 171
249 206 142 92 339 359 78 285 359 359 311 317 334 297 280 276 139 113 92 95 88 85 86 88 88 83 80 76 62 58 49 39 37 35 31 32 24 26 19 11 4 357 356 1 5 1 353 355 350 1 347 0 350 345 343 342 339 335 327 327 326 321 321 316 308 297 294 292 295 287 266 256 252 250 234 225 218 224 223 227 203 196 194 201 195 178 175 166 160 164 166 170 179 186 179 179 169
219 160 35 128 282 149 269 288 291 285 267 343 328 304 263 197 129 120 105 100 99 97 102 98 94 82 74 74 69 57 49 42 35 32 31 28 22 19 20 15 8 2 3 3 358 356 352 353 348 357 344 359 351 344 340 339 338 331 330 329 324 318 313 306 304 303 296 292 286 288 285 271 260 244 263 251 222 226 223 230 226 200 193 194 180 172 165 160 164 169 170 163 172 165 175 183 165
225 43 268 182 188 163 182 233 212 269 63 348 340 328 70 111 113 98 117 109 111 115 105 102 97 92 78 65 63 59 50 43 35 30 26 19 18 17 20 17 9 4 349 358 353 355 348 350 348 356 342 354 346 342 338 338 337 331 334 330 322 317 312 310 308 305 300 296 291 288 288 280 266 258 245 266 288 258 268 249 238 206 191 185 168 170 170 161 163 163 161 162 150 149 134 201 172
221 287 281 259 249 149 184 216 177 116 358 348 328 324 298 156 159 133 120 121 122 111 107 109 103 95 86 77 59 61 56 46 37 20 25 21 20 18 6 12 13 357 340 1 353 352 348 348 347 349 340 345 340 341 334 339 332 331 331 329 325 319 315 312 308 302 299 295 292 290 289 288 279 272 252 243 232 253 248 244 249 224 187 186 166 170 171 164 164 165 167 164 154 142 143 132 206
260 328 299 239 243 156 168 228 155 196 219 339 299 290 291 181 176 144 136 127 125 116 114 107 99 92 91 84 76 61 65 54 40 33 31 23 16 8 1 7 3 359 350 356 351 346 348 349 350 348 347 346 344 341 338 337 333 329 327 326 326 327 324 315 309 305 302 299 296 292 289 285 276 266 271 261 242 219 232 236 240 239 196 186 168 166 169 164 167 166 166 159 149 137 129 126 92
300 332 304 171 173 158 198 190 193 179 212 326 294 277 227 159 196 128 130 131 123 118 117 113 101 96 94 92 87 74 60 53 43 38 30 26 17 5 1 6 359 354 342 345 347 349 349 351 349 345 344 341 342 335 334 331 328 327 326 326 326 322 320 320 318 316 310 306 302 296 290 286 282 277 267 262 262 256 232 240 263 255 229 183 166 170 164 160 155 153 160 166 152 136 138 143 130
271 231 250 129 172 195 192 193 174 201 187 300 331 355 132 203 155 126 134 134 132 124 121 108 96 90 81 85 86 76 58 35 39 44 23 20 21 5 353 359 353 350 338 339 344 352 348 346 347 340 341 339 337 332 330 328 326 322 319 321 322 319 319 322 321 319 317 312 307 302 297 292 289 280 272 268 253 250 251 245 237 258 248 208 167 167 164 160 158 159 161 155 161 153 154 157 147
239 173 172 219 147 215 181 216 156 220 167 209 281 259 287 104 146 120 140 141 130 112 110 107 105 100 101 91 77 73 52 50 34 39 27 14 12 6 345 348 348 347 339 344 347 348 344 344 346 339 339 335 331 332 327 323 319 316 317 321 318 315 321 319 317 315 312 314 314 312 312 308 301 292 280 268 260 250 246 246 236 236 243 205 185 176 165 161 159 162 160 168 172 168 164 164 163
247 55 279 264 19 87 158 9 154 215 185 168 321 239 322 358 121 134 135 129 124 120 117 114 110 106 98 84 81 53 55 58 22 37 30 6 7 3 343 345 343 345 341 339 337 343 341 343 343 339 335 332 331 331 327 322 318 313 310 312 313 315 317 316 314 310 310 311 311 310 309 307 301 296 288 277 265 254 245 246 248 224 236 227 191 176 170 163 161 161 169 170 167 168 161 163 168
267 193 320 322 23 291 173 226 137 341 304 242 102 240 306 125 139 119 132 124 119 117 122 126 114 103 96 98 78 42 55 35 30 18 14 10 355 357 346 339 343 343 333 339 342 343 337 338 340 338 335 329 328 327 322 317 313 312 309 307 308 310 312 313 310 309 307 309 310 305 303 304 308 306 297 287 276 260 246 238 240 241 230 218 191 178 175 168 162 163 172 178 184 167 171 170 167
171 72 327 316 273 329 314 146 286 173 111 271 302 247 229 237 136 133 132 133 125 126 132 124 118 118 108 89 72 58 43 29 27 3 4 5 348 334 328 322 323 329 329 333 339 332 322 322 327 324 320 314 315 314 314 313 312 309 305 303 301 302 305 302 306 306 304 304 305 305 310 311 308 305 301 296 287 268 252 241 234 227 228 224 199 176 181 171 167 165 171 178 181 177 170 168 167
311 333 344 300 333 300 276 282 170 252 137 302 309 271 257 234 140 146 157 137 135 135 137 137 129 120 112 96 72 62 29 32 26 345 359 341 310 306 304 299 315 326 323 320 326 319 310 315 317 319 313 312 315 313 308 305 302 302 301 298 293 294 293 297 300 296 297 299 302 307 308 306 307 307 306 303 298 283 260 245 235 226 220 210 198 181 178 174 170 170 170 175 181 182 172 168 167
295 316 296 300 278 278 280 284 145 276 253 302 266 256 253 268 150 158 148 148 135 131 129 130 130 117 101 86 81 49 43 31 5 304 330 324 335 340 335 333 330 327 324 333 333 328 325 322 319 313 309 310 310 309 309 307 306 305 305 304 301 297 292 292 293 288 288 293 298 302 301 305 314 312 310 307 304 294 271 251 235 227 220 215 196 181 177 175 173 169 174 172 171 171 168 158 149
306 267 241 241 252 266 265 283 121 100 342 236 270 283 271 256 229 161 161 142 131 140 143 142 125 108 97 99 81 44 44 7 294 296 356 358 343 328 326 326 323 327 331 334 328 324 327 326 323 320 319 315 314 314 311 311 310 306 301 300 299 296 296 294 285 283 284 284 292 293 295 309 308 307 308 310 310 308 293 264 245 228 215 215 208 185 179 174 176 174 173 173 170 170 170 161 160
245 253 250 259 244 260 305 291 155 116 126 260 271 262 254 249 255 158 150 157 158 153 146 138 122 117 122 104 81 89 297 282 6 351 355 356 324 324 337 340 329 329 325 327 324 323 327 324 322 320 320 318 315 312 309 304 302 303 302 301 302 301 300 294 288 282 281 285 283 281 290 301 305 307 306 304 304 305 305 296 264 234 216 213 204 188 177 172 176 178 169 171 182 173 170 165 161
247 241 247 263 270 303 273 119 71 336 20 263 255 262 267 275 215 160 160 168 149 134 131 127 122 123 117 118 110 112 33 10 349 314 350 344 340 344 342 321 321 319 321 327 326 330 327 324 319 317 313 312 311 310 308 303 299 295 295 295 297 296 291 288 284 284 280 278 275 274 286 298 303 306 306 303 302 302 303 305 291 248 218 222 214 181 176 177 177 179 174 170 170 184 161 167 165
233 242 246 231 230 95 286 237 55 321 336 285 284 284 276 277 139 152 159 128 113 109 116 114 124 120 106 102 135 101 31 12 331 330 339 339 344 331 329 329 329 330 327 323 328 325 319 315 313 309 307 307 308 309 304 296 292 291 289 286 285 282 288 290 287 281 275 277 274 271 283 286 296 301 303 304 300 299 305 312 308 278 224 213 206 199 177 178 179 179 178 173 166 164 164 175 179
264 282 270 265 307 6 201 289 325 304 275 264 287 281 260 162 164 162 132 118 136 144 130 137 129 113 150 155 90 80 27 10 308 307 327 335 336 334 337 332 331 332 327 327 328 324 318 313 310 308 311 313 313 310 306 301 296 294 292 289 283 283 278 280 288 287 282 280 278 274 274 283 290 295 300 302 303 303 308 312 312 300 253 227 219 200 184 182 179 178 179 173 174 169 168 167 178
281 130 79 88 48 305 311 309 308 324 292 218 4 328 243 165 178 170 141 150 171 162 160 160 140 138 139 93 67 55 9 33 291 302 314 317 330 340 340 335 332 327 326 324 320 316 313 311 311 318 318 315 311 307 304 303 299 299 303 305 304 296 287 282 279 285 289 286 280 276 273 270 279 289 294 299 301 303 302 304 304 306 289 244 216 218 200 177 177 179 182 179 179 178 166 167 172
343 246 333 71 316 269 270 274 335 285 232 218 83 197 292 145 191 187 173 175 178 174 166 144 138 145 119 94 75 74 329 332 305 286 313 331 344 344 336 334 330 327 323 319 317 314 311 315 320 317 315 311 307 304 305 306 302 301 300 300 297 296 293 284 279 279 280 283 280 280 281 279 274 280 292 294 301 303 300 297 295 296 303 280 242 215 206 193 186 183 181 183 179 174 171 167 169
264 181 215 91 258 254 252 257 221 249 269 269 252 184 256 270 227 186 172 175 177 170 171 141 147 147 83 97 71 68 317 293 276 295 332 351 346 340 332 328 330 327 322 322 319 316 323 324 319 317 315 309 305 303 305 308 303 299 299 298 293 291 291 291 291 285 282 283 284 281 277 275 269 268 284 292 298 297 295 292 290 291 299 303 284 238 208 201 197 189 184 181 178 177 176 174 174
234 224 73 246 255 256 251 243 244 248 283 278 184 217 262 251 246 156 159 174 178 190 160 158 149 108 114 101 79 328 278 281 333 342 355 356 343 335 330 328 325 325 326 323 321 324 326 324 319 313 310 308 306 305 308 308 307 308 306 299 292 289 291 291 292 287 282 280 280 282 278 272 268 262 264 285 289 293 291 286 284 285 291 298 299 269 225 202 197 189 186 182 184 184 182 178 169
134 303 275 249 244 247 240 229 255 265 243 268 202 180 226 267 161 133 177 183 182 186 158 141 117 111 135 110 244 280 303 323 341 11 1 346 337 329 325 322 322 325 324 321 323 325 321 316 313 314 314 312 308 309 315 326 335 332 324 319 318 313 311 304 298 290 282 279 277 276 273 270 262 261 260 268 283 286 290 291 287 283 286 294 299 289 264 214 194 191 187 186 185 183 186 180 177
341 311 284 280 248 238 219 220 232 299 249 265 236 210 198 287 177 181 174 212 175 147 139 126 123 142 113 139 188 308 346 344 7 6 349 336 328 322 321 321 322 322 322 327 328 323 319 318 319 322 320 315 316 326 331 321 316 318 315 310 307 303 301 300 299 294 281 277 275 277 275 269 257 249 248 260 266 281 288 290 290 287 283 285 286 294 277 243 206 189 188 188 185 184 184 181 182
77 327 320 321 294 248 236 236 122 154 262 165 356 81 212 211 310 79 119 86 111 143 146 123 147 121 179 127 11 351 355 11 3 359 339 331 324 321 321 322 327 327 330 331 326 323 321 321 324 321 318 322 321 316 317 315 309 306 303 301 303 305 304 298 295 295 297 286 277 278 278 273 262 243 233 242 262 270 282 288 292 291 287 284 288 290 292 256 223 200 182 181 185 188 182 180 177
154 280 289 330 294 6 313 60 321 204 241 247 59 39 335 255 230 130 174 131 127 117 120 133 135 114 58 36 358 345 21 5 356 347 336 327 324 322 325 326 328 333 332 330 327 324 323 323 325 324 321 320 314 314 316 312 305 300 299 297 299 305 303 303 298 295 295 297 295 281 274 269 264 250 235 234 249 264 271 286 294 294 294 281 279 285 288 287 240 214 194 181 183 181 183 182 182
214 195 191 120 337 321 272 243 244 259 351 227 107 14 257 248 268 223 161 142 123 118 128 129 112 101 79 41 18 20 6 359 345 337 330 323 320 322 326 329 330 331 333 330 325 325 327 325 325 324 321 321 318 314 315 312 308 308 306 298 303 304 301 298 293 290 292 290 289 290 281 272 265 254 243 230 236 256 257 266 274 286 284 287 285 283 284 287 265 217 195 192 187 187 181 183 185
209 127 124 172 172 171 275 239 235 239 241 243 307 14 226 101 263 83 133 132 133 130 131 140 133 130 113 72 51 15 354 355 341 336 323 320 320 325 330 330 328 328 327 328 327 326 328 325 326 326 325 320 320 318 313 309 311 315 307 292 292 305 298 302 312 312 301 287 281 282 282 278 272 264 236 226 218 244 258 263 273 279 290 291 291 288 290 288 280 244 200 192 190 184 185 181 183
190 179 71 58 219 171 237 141 275 310 321 297 155 198 177 204 56 89 120 130 126 147 131 120 65 59 45 47 24 7 351 346 339 327 322 319 323 329 335 336 331 330 329 327 326 327 327 327 327 326 323 319 317 319 319 320 317 313 314 309 305 304 310 317 313 311 311 316 311 300 287 276 269 262 236 214 219 229 250 261 270 275 288 294 293 291 285 281 281 255 212 191 191 191 185 186 180
349 70 218 204 74 145 306 332 68 49 358 259 165 276 261 121 44 127 129 151 152 142 122 83 67 42 50 26 35 341 345 336 330 324 319 322 326 333 332 328 328 330 330 330 328 329 328 325 324 321 316 312 312 313 312 315 312 311 310 309 307 317 322 316 310 307 310 307 305 308 308 295 272 260 235 209 222 221 240 252 265 275 286 291 291 288 284 279 280 267 226 192 189 185 185 187 180
98 197 220 217 119 129 125 234 355 332 248 268 150 229 266 156 265 166 144 184 170 140 106 86 94 50 68 269 357 10 337 336 321 319 319 320 331 333 329 324 327 328 327 326 326 322 318 318 316 313 311 312 314 315 316 315 312 310 312 310 314 315 308 304 305 307 309 307 307 307 305 310 304 276 238 217 214 222 239 242 257 269 275 287 288 288 286 283 282 276 240 201 186 181 182 186 185
133 195 326 97 281 299 208 81 261 228 253 283 255 218 229 185 217 158 190 183 177 136 92 77 10 21 343 356 345 353 336 329 330 322 320 326 325 324 321 322 326 324 322 320 318 316 314 313 313 312 310 313 314 314 312 312 312 313 314 312 312 305 306 311 311 308 307 305 307 305 305 304 307 302 264 229 217 220 232 235 244 260 270 280 287 287 287 287 285 279 254 211 188 181 181 182 184
57 359 339 218 93 225 152 194 217 224 269 316 280 288 260 176 209 175 176 168 146 94 95 33 346 334 4 346 345 342 339 331 325 324 324 328 326 320 321 324 324 323 322 320 317 317 319 318 317 318 318 319 320 320 319 318 319 314 311 310 310 316 314 315 317 312 306 305 305 305 304 303 302 305 299 252 225 219 223 232 236 249 263 274 284 287 289 291 293 283 265 226 189 179 180 181 182
155 158 227 191 183 249 101 300 156 195 260 248 291 290 295 178 28 118 126 141 142 136 176 247 245 249 31 4 354 345 336 333 329 326 326 325 320 319 321 325 321 317 316 316 319 320 320 324 324 326 325 323 320 319 319 317 314 311 311 313 313 310 305 312 313 306 302 301 302 303 301 297 298 297 303 292 255 226 220 226 232 243 258 270 282 290 292 294 292 288 276 235 192 180 177 179 175
196 182 214 195 166 187 209 257 101 220 217 237 224 265 277 224 240 125 133 111 134 133 140 253 245 70 57 12 350 347 335 325 326 327 327 322 318 322 326 325 323 321 321 323 321 323 328 326 325 325 323 320 318 319 321 317 316 311 309 309 309 310 311 313 308 302 297 297 297 299 304 307 307 305 303 301 282 261 235 220 224 238 254 265 276 286 291 291 288 288 282 247 199 180 180 174 174